www.pogodaiklimat.ru

Погода и климат >> Архив погоды >> Австралия >> Новый Южный Уэльс >> Фоулерс Гэп


ПОГОДА в Фоулерс Гэп

  • Прогноз погоды в Фоулерс Гэп
  • Монитор погоды в Фоулерс Гэп

АРХИВ ПОГОДЫ в Фоулерс Гэп

Время (UTC), дата Ветер
(напр.,м/с)
 
Видим.   Явления Облачность Т
(С)
Тd
(С)
f
(%)
Тe
(С)
Тes
(С)
Комфортность P
(гПа)
Po
(гПа)
Тmin
(С)
Tmax
(С)
R
(мм)
R24
(мм)
S
(см)
04 9.06 С 6 н/о н/о +17.5 +10.1 62 +17 +17 1018.6 996.8
05 9.06 С 5 н/о н/о +18.0 +10.1 60 +18 +18 1018.1 996.3
07 9.06 С 6 н/о н/о +18.2 +9.3 56 +18 +18 1017.2 995.4
08 9.06 С 3 н/о н/о +17.2 +9.4 60 +17 +17 1017.3 995.5
10 9.06 С 3 н/о н/о +13.6 +7.6 67 +13 +13 1017.6 995.8
11 9.06 С 4 н/о н/о +14.0 +7.5 65 +13 +13 1017.7 995.9
13 9.06 С 5 н/о н/о +16.6 +9.8 64 +16 +16 1017.3 995.5
14 9.06 С 7 н/о н/о +16.5 +11.2 71 +15 +15 1016.5 994.7 +19.4
16 9.06 С 9 н/о н/о +17.0 +12.1 73 +16 +16 1016.4 994.6
17 9.06 С 9 н/о н/о +16.5 +12.5 77 +15 +15 1016.1 994.3
19 9.06 С 8 н/о н/о +15.6 +12.2 80 +14 +14 1015.5 993.7
20 9.06 С 7 н/о н/о +14.9 +12.0 83 +13 +13 1015.8 994.0
22 9.06 С 5 н/о н/о +15.2 +12.3 83 +14 +14 1017.2 995.4
23 9.06 С 4 н/о н/о +16.2 +12.9 81 +15 +15 1017.8 996.0
01 10.06 С 7 н/о н/о +19.8 +13.5 67 +21 +21 комфорт 1017.7 995.9
02 10.06 СЗ 7 н/о н/о +21.7 +12.8 57 +24 +24 комфорт 1017.1 995.3 +13.2
04 10.06 З 6 н/о н/о +23.2 +10.9 46 +25 +25 комфорт 1016.2 994.4
05 10.06 СЗ 5 н/о н/о +23.9 +9.9 41 +25 +25 комфорт 1016.3 994.5
07 10.06 З 5 н/о н/о +23.1 +7.6 37 +24 +24 комфорт 1017.1 995.3
08 10.06 З 4 н/о н/о +20.7 +8.4 45 +22 +22 комфорт 1017.7 995.9
10 10.06 ЮЗ 2 н/о н/о +15.4 +7.7 60 +16 +16 1019.3 997.4
11 10.06 З 2 н/о н/о +15.0 +8.0 63 +15 +15 1019.6 997.7
13 10.06 штиль 0 н/о н/о +11.4 +5.5 67 +11 +11 1020.1 998.2
14 10.06 В 2 н/о н/о +11.4 +6.7 73 +10 +10 1020.1 998.2 +24.4
16 10.06 штиль 0 н/о н/о +8.9 +4.5 74 +8 +8 1019.9 998.0
17 10.06 штиль 0 н/о н/о +8.0 +3.8 75 +7 +7 1020.0 998.1
19 10.06 штиль 0 н/о н/о +7.1 +3.7 79 +6 +6 1019.8 997.9
20 10.06 штиль 0 н/о н/о +6.8 +3.1 77 +6 +6 1020.5 998.6
22 10.06 штиль 0 н/о н/о +7.5 +3.0 73 +7 +7 1022.1 1000.2
23 10.06 Ю 2 н/о н/о +10.7 +4.8 67 +10 +10 1022.6 1000.7
01 11.06 СВ 3 н/о н/о +18.1 +9.7 58 +18 +18 1023.1 1001.2
02 11.06 СВ 5 н/о н/о +22.5 +12.4 53 +25 +25 комфорт 1022.2 1000.3 +6.4
04 11.06 С 7 н/о н/о +25.7 +9.9 37 +26 +26 жарко 1020.1 998.2
05 11.06 С 7 н/о н/о +26.3 +10.0 36 +27 +27 жарко 1019.5 997.6
07 11.06 С 5 н/о н/о +26.1 +11.5 40 +27 +27 жарко 1019.5 997.6
08 11.06 С 4 н/о н/о +24.1 +11.4 45 +26 +26 жарко 1019.7 997.8
10 11.06 С 4 н/о н/о +20.8 +10.3 51 +23 +23 комфорт 1020.5 998.6
11 11.06 С 6 н/о н/о +22.8 +8.9 41 +24 +24 комфорт 1020.7 998.8
13 11.06 С 8 н/о н/о +22.3 +7.7 39 +23 +23 комфорт 1020.2 998.3
14 11.06 С 8 н/о н/о +21.5 +7.0 39 +22 +22 комфорт 1020.0 998.1 +27.3
16 11.06 С 8 н/о н/о +21.6 +7.4 40 +23 +23 комфорт 1018.7 996.9
17 11.06 С 10 н/о н/о +21.3 +8.2 43 +22 +22 комфорт 1017.6 995.8
19 11.06 С 10 н/о н/о +19.8 +7.2 44 +20 +20 1017.0 995.2
20 11.06 С 10 н/о н/о +19.6 +6.7 43 +19 +19 1016.6 994.8
22 11.06 С 9 н/о н/о +19.3 +6.4 43 +19 +19 1016.2 994.4
23 11.06 С 9 н/о н/о +19.3 +7.7 47 +19 +19 1017.3 995.5
01 12.06 С 7 н/о н/о +21.9 +8.4 42 +23 +23 комфорт 1018.1 996.3
02 12.06 СЗ 5 н/о н/о +22.1 +8.6 42 +23 +23 комфорт 1017.4 995.6 +16.4
04 12.06 З 7 н/о н/о +23.5 +9.9 42 +25 +25 комфорт 1016.3 994.5
05 12.06 З 5 н/о н/о +22.2 +9.7 45 +24 +24 комфорт 1016.0 994.2
07 12.06 Ю 3 н/о н/о +18.3 +15.0 81 +19 +19 1016.4 994.6
08 12.06 Ю 3 н/о туман местами н/о +17.7 +16.0 90 +18 +18 1016.7 994.9
10 12.06 Ю 5 н/о н/о +15.0 +14.7 98 +14 +14 1018.4 996.6
11 12.06 Ю 4 н/о {туман} н/о +14.8 +14.0 95 +14 +14 1018.2 996.4
13 12.06 ЮВ 2 н/о н/о +14.7 +14.4 98 +15 +15 1018.4 996.6
14 12.06 штиль 0 н/о в посл. час дождь {туман} н/о +14.6 +14.4 99 +14 +14 1018.6 996.8 +23.8
16 12.06 ЮЗ 4 н/о н/о +13.9 +13.6 98 +12 +12 1018.5 996.7
17 12.06 ЮЗ 4 н/о {туман} н/о +13.0 +12.8 99 +11 +11 1018.2 996.4
19 12.06 штиль 0 н/о н/о +11.2 +11.0 99 +10 +10 1018.4 996.6
20 12.06 ЮЗ 2 н/о н/о +10.8 +10.6 99 +10 +10 1019.2 997.3
22 12.06 ЮЗ 3 н/о н/о +9.1 +9.0 99 +7 +7 1020.7 998.8
23 12.06 З 2 н/о н/о +11.0 +10.8 99 +9 +9 1021.0 999.1
01 13.06 Ю 4 н/о н/о +15.4 +10.8 74 +15 +15 1021.5 999.6
02 13.06 ЮВ 3 н/о н/о +16.1 +9.5 65 +16 +16 1021.0 999.1 +8.9
04 13.06 Ю 3 н/о н/о +18.1 +7.8 51 +18 +18 1019.6 997.7
05 13.06 ЮЗ 4 н/о {туман} н/о +18.2 +6.1 45 +18 +18 1019.3 997.4
07 13.06 ЮЗ 4 н/о н/о +17.0 +6.5 50 +17 +17 1019.9 998.0
08 13.06 ЮЗ 4 н/о н/о +15.5 +6.2 54 +15 +15 1020.3 998.4
10 13.06 З 2 н/о н/о +12.2 +7.7 74 +12 +12 1021.5 999.6
11 13.06 ЮЗ 1 н/о н/о +11.2 +7.9 80 +11 +11 1021.7 999.8
13 13.06 штиль 0 н/о н/о +9.9 +7.3 84 +9 +9 1021.6 999.7
14 13.06 З 2 н/о н/о +9.6 +7.2 85 +8 +8 1021.9 1000.0 +18.7
16 13.06 З 1 н/о н/о +8.8 +7.1 89 +9 +9 1021.0 999.1
17 13.06 З 2 н/о н/о +8.4 +6.9 90 +7 +7 1020.9 999.0
19 13.06 З 2 н/о н/о +7.9 +6.5 91 +6 +6 1020.5 998.6
20 13.06 СЗ 2 н/о н/о +7.2 +6.3 94 +5 +5 1021.0 999.1
22 13.06 штиль 0 н/о н/о +7.0 +6.3 95 +6 +6 1022.0 1000.1
23 13.06 штиль 0 н/о н/о +9.7 +7.5 86 +9 +9 1022.6 1000.7
01 14.06 В 3 н/о н/о +14.9 +8.4 65 +14 +14 1023.0 1001.1
02 14.06 ЮВ 2 н/о н/о +15.7 +8.0 60 +16 +16 1022.3 1000.4 +6.6
04 14.06 ЮВ 3 н/о н/о +17.1 +6.6 50 +17 +17 1020.7 998.8
05 14.06 ЮВ 3 н/о н/о +17.2 +6.4 49 +17 +17 1020.4 998.5
07 14.06 СВ 3 н/о н/о +16.9 +6.4 50 +17 +17 1020.5 998.6
08 14.06 В 2 н/о н/о +15.7 +6.7 55 +16 +16 1020.9 999.0
10 14.06 штиль 0 н/о н/о +12.0 +7.7 75 +12 +12 1022.0 1000.1
11 14.06 штиль 0 н/о н/о +11.0 +7.3 78 +10 +10 1022.3 1000.4
13 14.06 штиль 0 н/о н/о +8.5 +6.8 89 +8 +8 1022.4 1000.5
14 14.06 ЮЗ 2 н/о н/о +8.0 +6.3 89 +6 +6 1022.5 1000.6 +18.5
16 14.06 штиль 0 н/о н/о +6.2 +5.3 94 +5 +5 1022.2 1000.3
17 14.06 ЮЗ 3 н/о н/о +6.1 +5.1 93 +3 +3 1022.1 1000.2
19 14.06 З 2 н/о н/о +5.2 +4.3 94 +2 +2 1021.9 1000.0
20 14.06 З 1 н/о н/о +4.8 +4.1 95 +3 +3 1022.1 1000.2
22 14.06 штиль 0 н/о н/о +4.5 +4.1 97 +3 +3 1023.1 1001.2
23 14.06 штиль 0 н/о н/о +6.8 +4.6 86 +6 +6 1023.5 1001.6
01 15.06 В 1 н/о н/о +14.5 +7.1 61 +15 +15 1023.8 1001.8
02 15.06 ЮВ 1 н/о н/о +16.1 +6.5 53 +17 +17 1023.3 1001.4 +3.5
04 15.06 В 3 н/о н/о +17.7 +5.3 44 +18 +18 1021.6 999.7
05 15.06 В 3 н/о н/о +17.5 +4.1 41 +18 +18 1021.0 999.1
07 15.06 СВ 2 н/о н/о +17.5 +4.1 41 +18 +18 1021.0 999.1
08 15.06 СВ 2 н/о н/о +15.4 +5.0 50 +15 +15 1021.4 999.5
10 15.06 штиль 0 н/о н/о +11.5 +5.6 67 +11 +11 1022.0 1000.1
11 15.06 штиль 0 н/о н/о +11.0 +5.1 67 +11 +11 1021.8 999.9
13 15.06 ЮЗ 1 н/о н/о +8.5 +4.5 76 +8 +8 1021.9 1000.0
14 15.06 штиль 0 н/о н/о +7.8 +4.6 80 +7 +7 1021.5 999.6 +18.8
16 15.06 штиль 0 н/о н/о +6.9 +4.2 83 +6 +6 1021.9 1000.0
17 15.06 З 1 н/о н/о +6.8 +4.1 83 +7 +7 1021.8 999.9
19 15.06 штиль 0 н/о н/о +6.3 +3.6 83 +5 +5 1021.1 999.2
20 15.06 штиль 0 н/о н/о +6.3 +4.1 86 +5 +5 1021.1 999.2
22 15.06 С 2 н/о н/о +8.7 +5.3 79 +7 +7 1022.2 1000.3
23 15.06 СВ 2 н/о н/о +10.1 +5.7 74 +9 +9 1022.5 1000.6
02 16.06 СЗ 4 н/о н/о +15.1 +5.0 51 +14 +14 1022.6 1000.7 +5.8

 

Местоположение метеостанции Фоулерс Гэп (Новый Южный Уэльс, Австралия): широта -31.08 долгота 141.70 высота над уровнем моря 181 м.

В архиве по умолчанию представлена погода в Фоулерс Гэп за последнюю неделю. Архивные данные за месяц целиком и за предыдущие месяцы, начиная с января 2011 года, Вы можете получить, выбрав интересующий диапазон дат из раскрывающегося списка и нажав кнопку "Ввод!".


*Определитесь, кто Вы:
робот инопланетянин человек

Внимание! Время в таблицах - всемирное. Для получения местного времени необходимо прибавить поправку, которая равна 10 ч.

Смотрите также архив погоды в соседних городах и на ближайших метеорологических станциях:

Погода в Брокен-Хилл аэропорту (Новый Южный Уэльс, Австралия) (105 км)
Погода в Уафт Клифс (Новый Южный Уэльс, Австралия) (133 км)
Погода в Уилкании (Новый Южный Уэльс, Австралия) (167 км)
Погода в Тибообере (Новый Южный Уэльс, Австралия) (184 км)
Погода в Юнте (Южная Австралия, Австралия) (261 км)
Погода в Ли-Крике (Южная Австралия, Австралия) (318 км)
Погода в Айванхо (Новый Южный Уэльс, Австралия) (318 км)
Погода в Милдьюре (Новый Южный Уэльс, Австралия) (352 км)
Погода в Ренмарке (Южная Австралия, Австралия) (360 км)
Погода в Мумбе (Южная Австралия, Австралия) (362 км)

Пояснения к столбцам:

Ветер - указаны скорость ветра в м/с - средняя за 10 мин, порывы в срок и между сроками (в фигурных скобках) и направление, откуда дует ветер: С - северный, СВ - северо-восточный, В - восточный, ЮВ - юго-восточный, Ю - южный, ЮЗ - юго-западный, З - западный, СЗ - северо-западный.
Видимость - горизонтальная дальность видимости в метрах или километрах. При видимости от 1 до 10 км при отсутствии осадков обычно наблюдается дымка, при ухудшении видимости до 1 км и менее - туман. В сухую погоду видимость может ухудшаться дымом, пылью или мглою.
Явления - указаны атмосферные явления, наблюдавшиеся в срок или в последний час перед сроком; фигурными скобками обозначены явления, наблюдавшиеся между сроками (за 1-3 часа до срока); квадратными скобками обозначены град или гололедные отложения с указанием их диаметра в мм.
Облачность - указаны через наклонную черту общая и нижняя облачность в баллах и высота нижней границы облаков в метрах; квадратными скобками обозначены формы облаков: Ci - перистые, Cs - перисто-слоистые, Cc - перисто-кучевые, Ac - высококучевые, As - высокослоистые, Sc - слоисто-кучевые, Ns - слоисто-дождевые, Cu - кучевые, Cb - кучево-дождевые. Подробнее классификацию облаков см. в Атласе облаков (PDF).
T - Температура воздуха - температура, измеренная на высоте 2 м над землей.
Td - Температура точки росы - температура, при понижении до которой содержащийся в воздухе водяной пар достигнет насыщения.
f - Относительная влажность воздуха - влажноcть воздуха, измеренная на высоте 2 м над землей.
Te - Эффективная температура - температура, которую ощущает одетый по сезону человек в тени. Характеристика душности погоды. При расчете учитывается влияние влажности воздуха и скорости ветра на теплоощущения человека.
Tes - Эффективная температура на солнце - температура, которую ощущает человек, с поправкой на солнечный нагрев. Характеристика знойности погоды. Зависит от высоты солнца над горизонтом, облачности и скорости ветра. Ночью, в пасмурную погоду, а также при ветре 12 м/с и более поправка равна нулю.
P - Атмосферное давление - приведенное к уровню моря атмосферное давление.
Po - Атмосферное давление - измеренное на уровне метеостанции атмосферное давление.
Tmin - Минимальная температура - минимум температуры воздуха на высоте 2 м над землей.
Tmax - Максимальная температура - максимум температуры воздуха на высоте 2 м над землей.
R - Количество осадков - Количество выпавших осадков за период времени, мм. При наведении курсора мыши на число - период времени, за который выпало указанное количество осадков.
R24 - Количество осадков - Количество выпавших осадков за 24 часа, мм.
S - Снежный покров - Высота снежного покрова, см. При наведении курсора мыши на число - состояние снежного покрова и степень покрытия местности в баллах.